This demonstration page uses our WeatherBlox Daily Observations layout. Learn more.

Left ArrowRight Arrow

Hourly Observations for December 17, 2015

Temp ( °F °C ) Dew Point ( °F °C ) Humidity (%) Winds ( mph kmh ) Pressure ( in mb ) Visibility ( mi km ) Precip ( " mm )
2:53 am 02:53 Cloudy with Light Rain 57 13.9 55 12.8 93 93 SE 5 7 29.83 1010 7 11 0.23 5.84
3:35 am 03:35 Cloudy with Light Rain 57 13.9 55 12.8 93 93 NE 3 6 29.83 1010 10 16 0.03 0.76
3:53 am 03:53 Cloudy with Light Rain 57 13.9 55 12.8 93 93 Calm 29.80 1009 10 16 0.04 1.02
4:22 am 04:22 Cloudy with Light Rain 57 13.9 56 13.3 96 96 Calm 29.80 1009 6 10 0.02 0.51
4:53 am 04:53 Cloudy with Rain 57 13.9 56 13.3 96 96 N 3 6 29.79 1009 4 6 0.11 2.79
5:34 am 05:34 Cloudy 57 14 55 13 94 94 NE 5 7 29.80 1009 10 16 0.00 0.00
5:45 am 05:45 Cloudy with Light Rain 58 14.4 56 13.3 93 93 NE 5 7 29.80 1009 10 16 0.01 0.25
5:53 am 05:53 Cloudy with Light Rain 58 14.4 56 13.3 93 93 Calm 29.78 1008 8 13 0.02 0.51
6:53 am 06:53 Cloudy with Light Rain 58 14.4 56 13.3 93 93 E 7 11 29.74 1007 6 10 0.06 1.52
7:53 am 07:53 Cloudy with Mist and Fog 58 14.4 56 13.3 93 93 Calm 29.78 1008 3 5 0.00 0.03
8:53 am 08:53 Cloudy with Mist and Fog 58 14.4 56 13.3 93 93 N 3 6 29.79 1009 3 4 0.01 0.25
9:40 am 09:40 Cloudy with Mist and Fog 59 15 57 14 94 94 Calm 29.80 1009 3 4 0.00 0.00
9:53 am 09:53 Cloudy with Mist and Fog 59 15 57 13.9 93 93 Calm 29.80 1009 3 4 0.01 0.25
10:00 am 10:00 Cloudy with Mist and Fog 59 15 57 14 94 94 Calm 29.83 1010 2 2 0.00 0.00
10:15 am 10:15 Cloudy with Mist and Fog 59 15 57 13.9 93 93 Calm 29.80 1009 2 2 0.00 0.00
10:53 am 10:53 Cloudy with Mist and Fog 60 15.6 58 14.4 93 93 Calm 29.81 1010 2 2 0.00 0.00
11:00 am 11:00 Cloudy with Mist and Fog 59 15 57 14 94 94 Calm 29.83 1010 3 4 0.00 0.00
11:12 am 11:12 Cloudy with Mist and Fog 61 16 57 14 88 88 W 3 6 29.83 1010 1 2 0.00 0.00
11:33 am 11:33 Cloudy with Mist and Fog 60 15.6 59 15 96 96 Calm 29.83 1010 1 2 0.00 0.00
11:48 am 11:48 Cloudy with Mist and Fog 61 16 59 15 94 94 SW 3 6 29.83 1010 3 5 0.00 0.00
11:49 am 11:49 Cloudy with Mist and Fog 61 16 59 15 94 94 SW 3 6 29.83 1010 2 3 0.00 0.00
11:53 am 11:53 Cloudy with Mist and Fog 61 16.1 59 15 93 93 SW 3 6 29.81 1009 2 3 0.00 0.00
12:00 pm 12:00 Cloudy with Mist and Fog 63 17 61 16 94 94 SSW 3 6 29.80 1009 4 6 0.00 0.00
12:18 pm 12:18 Cloudy with Mist and Fog 63 17 61 16 94 94 SW 3 6 29.80 1009 4 6 0.00 0.00
12:49 pm 12:49 Cloudy with Mist and Fog 63 17 59 15 88 88 W 8 13 29.80 1009 4 6 0.00 0.00
12:53 pm 12:53 Cloudy 63 17.2 59 15 87 87 W 6 9 29.80 1009 4 6 0.00 0.00
1:41 pm 13:41 Cloudy 64 17.8 59 15 84 84 WSW 3 6 29.80 1009 10 16 0.00 0.00
1:53 pm 13:53 Cloudy 64 17.8 59 15 84 84 W 6 9 29.78 1009 10 16 0.00 0.00
2:53 pm 14:53 Cloudy 65 18.3 57 13.9 76 76 NW 9 15 29.78 1009 10 16 0.00 0.00
3:00 pm 15:00 Mostly Cloudy 64 18 55 13 73 73 NW 10 17 29.80 1009 10 16 0.00 0.00
3:53 pm 15:53 Partly Cloudy 64 17.8 54 12.2 70 70 WNW 7 11 29.79 1009 10 16 0.00 0.00
4:53 pm 16:53 Sunny 62 16.7 52 11.1 70 70 NW 10 17 29.81 1010 10 16 0.00 0.00
5:53 pm 17:53 Clear 59 15 50 10 72 72 WNW 8 13 29.83 1010 10 16 0.00 0.00
6:53 pm 18:53 Clear 57 13.9 49 9.4 74 74 WNW 7 11 29.84 1010 10 16 0.00 0.00
7:53 pm 19:53 Clear 55 12.8 49 9.4 80 80 W 8 13 29.86 1011 10 16 0.00 0.00
8:53 pm 20:53 Clear 53 11.7 47 8.3 80 80 WNW 8 13 29.87 1012 10 16 0.00 0.00
9:53 pm 21:53 Clear 51 10.6 46 7.8 83 83 WNW 7 11 29.88 1012 10 16 0.00 0.00
10:53 pm 22:53 Clear 49 9.4 45 7.2 86 86 W 5 7 29.87 1012 10 16 0.00 0.00
11:53 pm 23:53 Clear 49 9.4 44 6.7 83 83 WNW 5 7 29.89 1012 10 16 0.00 0.00

Powered by AerisWeather